Wetbulb
59.07 59.39 60.25 60.64 61.21 61.72 61.62 61.45 61.38 60.86 60.62 60.77 61.09 60.85 60.99 61.57 61.76 60.81 57.32 60.50 61.82 64.82 63.88 61.03 59.59 57.83 56.20 53.07 53.73 52.17 43.19 41.44 44.38 45.73 47.11 50.96 50.23 52.40 54.31 54.65 55.85 57.55 57.46 60.21 63.54
58.23 59.12 59.44 60.04 60.66 61.18 61.50 61.48 61.24 60.85 60.46 60.20 60.72 60.89 60.62 61.13 58.71 56.38 62.63 64.45 64.42 63.88 60.23 57.71 56.07 56.36 50.67 50.68 51.27 46.71 41.19 44.29 49.11 48.60 48.60 50.83 50.46 51.71 51.79 52.34 53.40 55.97 60.00 62.10 62.90
57.51 58.36 58.90 59.31 60.20 60.63 61.13 61.23 60.90 60.60 60.32 59.68 59.54 60.54 60.01 60.12 54.49 54.06 62.89 63.57 63.99 62.68 60.32 59.30 58.03 54.74 48.70 49.08 48.25 47.04 42.91 47.83 49.84 52.24 51.71 51.57 50.21 51.48 50.74 48.72 53.48 53.92 57.50 60.28 60.62
56.78 57.79 58.48 58.76 59.73 60.34 60.42 60.82 60.86 60.30 60.09 59.44 59.01 59.70 59.33 58.34 41.08 57.47 61.66 63.50 64.09 61.45 59.33 57.33 54.36 49.24 45.55 44.52 48.33 43.79 48.10 48.72 51.75 52.43 51.74 50.16 52.04 49.35 49.77 49.33 54.99 57.03 58.72 59.28 59.08
56.71 57.31 57.93 58.35 59.27 59.98 60.13 60.45 60.65 60.24 59.89 59.47 59.07 59.07 56.98 50.03 49.97 58.69 61.26 62.40 61.99 59.38 57.57 54.99 51.30 48.89 44.61 45.17 46.31 44.98 46.14 50.05 51.26 51.63 50.58 51.96 49.30 48.87 48.91 52.08 54.04 54.85 55.83 56.59 57.18
56.25 56.57 57.07 57.93 58.68 59.47 60.07 59.82 60.39 60.11 60.03 59.70 59.25 58.96 53.15 42.47 56.24 59.70 59.16 59.04 59.23 57.01 55.69 55.82 52.67 52.13 47.31 45.60 43.58 45.83 46.72 47.79 50.46 50.02 50.44 48.89 47.80 48.38 50.01 51.54 52.19 53.37 52.95 53.14 53.33
55.83 55.97 56.28 57.42 58.30 58.92 59.50 59.92 59.70 59.77 60.05 59.46 58.94 55.64 49.33 45.95 54.92 56.70 57.96 56.70 57.99 57.35 53.42 55.70 55.88 51.42 48.89 44.53 48.57 46.94 43.17 45.26 46.67 48.27 47.48 49.04 45.03 46.63 48.97 50.13 50.85 51.19 51.25 52.06 53.17
54.84 55.42 55.58 56.62 57.40 58.30 58.80 59.22 59.05 59.39 59.59 59.73 59.46 51.72 43.91 53.45 55.08 55.52 55.79 55.70 58.24 58.93 57.89 57.01 57.01 53.04 48.60 48.51 46.38 42.04 40.73 36.60 44.02 47.28 47.21 46.43 37.48 45.77 48.81 48.52 48.66 48.80 48.97 50.91 51.37
54.01 54.69 55.20 56.01 56.51 57.35 58.03 58.32 58.47 58.41 59.02 58.71 53.14 48.34 42.40 54.27 50.41 53.17 54.79 52.96 56.84 56.63 57.35 58.43 55.30 48.25 48.24 41.26 37.34 38.28 30.87 34.19 38.14 44.98 45.18 43.67 38.24 44.44 45.99 46.33 46.65 46.53 47.51 48.24 47.98
53.74 54.04 54.88 55.17 55.84 56.43 57.26 57.46 57.08 56.48 56.71 54.75 52.55 45.68 47.62 45.04 49.12 51.45 52.76 55.14 54.42 53.80 52.19 51.37 47.71 40.98 41.46 36.99 30.16 32.60 32.80 33.42 33.10 38.58 41.61 40.23 39.83 43.42 43.64 44.70 43.43 43.53 44.53 44.18 45.75
53.37 53.49 54.25 54.98 55.10 55.59 55.56 53.00 49.09 48.00 50.66 45.85 46.01 45.40 46.48 49.12 51.25 48.65 52.01 53.67 52.73 50.45 43.43 46.67 39.94 35.59 39.92 40.43 37.88 36.87 34.59 33.08 35.74 39.76 39.09 37.71 37.88 40.36 42.29 41.71 42.87 42.86 43.04 43.70 44.92
53.18 53.39 53.72 54.61 54.66 54.56 53.39 48.60 48.03 50.11 43.89 48.90 48.83 47.29 48.55 49.18 43.64 45.93 53.11 48.58 47.07 41.55 43.91 42.35 36.18 41.85 43.45 42.85 40.01 37.59 34.43 32.58 36.25 41.08 38.90 37.47 36.86 39.82 40.12 40.74 43.17 43.08 43.45 44.49 44.20
52.97 52.90 52.92 53.41 53.34 51.78 48.37 49.32 52.11 52.67 43.04 45.43 48.12 45.94 46.55 48.41 43.11 42.72 49.90 48.18 44.87 41.44 40.87 37.33 39.56 44.39 42.60 40.61 39.16 37.63 35.41 33.91 33.82 37.65 38.35 36.61 33.57 36.94 40.70 43.03 41.99 44.13 44.90 45.07 45.02
52.46 52.78 52.52 52.40 47.17 48.39 46.17 49.88 50.86 53.14 37.23 38.44 43.18 45.68 46.82 47.28 42.02 47.49 51.11 47.38 43.50 40.64 41.43 40.19 43.71 41.56 39.61 38.65 40.15 35.55 40.17 38.85 36.79 33.99 28.21 35.78 24.14 32.99 37.16 38.19 40.64 43.35 42.88 43.03 43.98
52.21 52.35 52.31 51.44 45.93 43.33 47.17 50.29 51.21 48.19 24.15 39.59 41.98 50.60 47.56 42.48 42.55 42.97 49.48 46.26 39.60 40.14 41.25 37.28 40.18 38.88 37.63 38.10 41.12 37.47 41.28 39.08 37.28 33.28 31.91 31.70 28.21 30.82 35.35 35.63 38.85 40.67 42.18 42.75 43.90
52.19 51.96 51.70 48.57 44.89 47.31 49.89 49.87 45.06 32.38 23.05 35.41 42.32 41.20 40.26 41.83 41.71 43.54 43.39 46.22 43.70 39.02 38.19 37.76 41.44 41.49 41.25 41.75 41.58 42.11 39.41 38.47 37.09 34.80 28.35 30.94 29.70 27.48 32.93 36.41 37.66 40.05 42.45 44.02 42.98
52.00 51.93 49.41 47.61 40.10 49.48 48.99 41.06 27.30 25.35 36.10 32.96 36.32 40.24 38.33 37.85 38.97 39.86 38.43 38.86 34.25 31.89 31.37 35.41 37.10 40.39 42.03 37.81 40.60 39.81 35.37 26.29 24.35 25.68 21.99 30.54 29.83 31.73 36.53 39.18 39.32 41.05 41.46 42.34 43.09
51.60 51.05 48.75 47.48 49.15 49.12 45.39 33.81 22.14 29.09 28.56 37.83 37.91 39.01 35.22 37.37 37.79 38.43 36.28 35.43 38.50 35.38 32.20 29.13 27.21 36.98 40.92 38.48 36.56 36.94 35.08 26.56 19.24 21.79 22.86 29.03 26.36 30.70 38.66 41.12 41.51 42.67 42.66 42.28 40.96
50.44 44.52 42.88 45.16 48.87 47.45 36.54 26.08 25.49 29.79 32.58 35.77 36.42 33.91 33.78 36.98 37.00 36.93 34.82 34.55 37.40 38.30 31.16 30.45 30.29 38.79 40.45 41.07 41.12 36.66 33.63 36.44 28.20 22.09 22.10 25.45 29.20 35.79 38.82 38.97 38.79 40.20 41.18 40.52 40.73
41.77 39.66 40.38 45.46 46.15 41.90 31.55 27.71 29.84 33.83 33.27 34.64 29.27 33.83 30.90 33.94 33.62 35.24 34.72 37.23 36.36 39.98 38.52 34.44 27.94 35.98 38.72 39.92 39.40 38.39 40.05 31.29 30.74 18.77 14.26 22.71 23.99 27.76 32.73 36.37 38.50 39.31 40.67 40.95 40.78
39.60 33.94 42.98 44.50 41.79 34.69 25.78 27.76 30.17 34.87 34.78 31.88 29.71 32.76 32.48 33.51 34.20 33.93 32.82 35.98 39.29 38.85 40.72 36.82 33.16 31.31 36.50 34.19 34.05 35.51 33.84 34.68 33.45 28.19 19.56 17.55 22.56 33.27 36.76 37.07 37.81 38.17 40.32 40.96 40.20
35.28 28.61 43.58 44.42 29.47 27.57 25.88 29.28 32.44 32.84 34.98 32.78 33.61 32.45 31.30 35.05 33.91 33.48 32.61 35.58 40.71 40.85 35.87 38.48 34.03 27.51 32.38 36.02 37.96 38.73 35.89 35.64 28.90 25.03 27.81 26.51 25.57 36.77 36.63 37.23 39.04 39.56 40.02 41.49 41.31
32.44 33.65 42.81 40.66 20.94 15.32 27.40 27.01 30.83 29.32 31.48 31.05 30.63 32.75 32.80 31.13 31.46 34.99 34.52 39.09 39.40 39.86 37.02 38.36 31.69 24.17 28.58 33.21 35.16 34.55 36.24 36.82 36.17 32.42 28.19 23.90 27.21 38.67 39.77 37.19 37.01 37.02 37.96 40.20 39.32
31.02 25.97 32.94 36.43 32.19 21.01 15.08 19.72 22.42 32.34 31.69 32.80 30.34 32.21 30.19 29.91 31.87 31.31 34.55 37.35 39.58 40.36 42.11 41.43 33.49 30.22 24.95 27.30 32.43 29.75 33.72 35.68 34.57 29.84 28.63 28.88 30.97 35.54 36.32 35.87 36.22 36.72 37.43 38.73 39.42
30.65 26.76 25.75 26.49 26.72 22.92 26.15 26.70 25.59 20.58 31.92 32.70 28.85 28.55 30.08 26.61 28.70 29.56 32.70 36.28 38.95 40.50 40.64 38.79 31.45 32.17 32.71 30.99 32.22 31.91 32.24 33.49 32.42 33.15 28.81 31.65 31.39 35.23 37.83 36.61 37.75 39.03 37.42 36.36 38.15
26.22 23.18 24.97 16.17 26.29 27.37 24.02 18.22 25.01 22.27 27.48 27.80 27.27 29.30 31.83 27.05 29.72 27.71 31.11 30.81 34.74 37.90 37.79 38.68 28.72 31.25 29.49 31.79 31.18 28.78 31.96 33.12 33.85 34.17 33.86 33.88 32.79 39.57 39.05 36.67 35.88 37.99 38.18 37.29 37.64
33.49 33.57 28.33 24.16 23.34 19.87 20.68 20.64 24.93 28.25 28.54 30.50 30.37 29.16 29.58 31.08 33.58 35.39 35.56 34.49 34.33 31.63 35.60 35.83 33.13 30.10 27.09 29.84 29.96 26.86 30.18 31.37 32.38 34.99 34.43 30.48 35.42 39.59 38.38 38.80 39.18 38.83 38.94 39.80 38.48
MSLP
1016.27 1016.21 1016.34 1016.51 1016.74 1016.98 1017.37 1017.53 1017.74 1018.00 1018.06 1018.24 1018.18 1018.22 1018.39 1018.29 1017.93 1017.60 1017.54 1017.38 1017.18 1016.83 1016.22 1015.83 1015.03 1014.83 1014.23 1014.21 1014.03 1014.03 1014.81 1015.09 1014.95 1014.91 1014.95 1014.83 1014.87 1015.06 1015.42 1016.00 1016.77 1017.10 1017.58 1017.97 1018.35
1016.16 1016.17 1016.26 1016.28 1016.47 1016.75 1017.02 1017.25 1017.56 1017.77 1017.81 1017.97 1018.01 1018.33 1018.51 1018.39 1018.22 1017.72 1017.35 1017.08 1017.06 1016.95 1016.65 1016.60 1016.14 1015.68 1015.22 1014.79 1014.63 1014.70 1015.10 1015.13 1014.76 1014.56 1014.68 1014.89 1015.10 1015.31 1016.00 1016.59 1017.67 1017.97 1018.16 1018.29 1018.49
1016.01 1015.99 1015.98 1016.17 1016.24 1016.44 1016.74 1016.98 1017.44 1017.63 1017.83 1018.00 1018.29 1018.33 1018.45 1018.35 1018.13 1017.42 1017.16 1016.93 1016.88 1016.97 1017.07 1016.98 1016.62 1016.30 1016.00 1015.35 1015.16 1015.15 1015.37 1015.07 1015.13 1014.73 1014.54 1014.84 1015.34 1015.37 1016.07 1016.89 1017.05 1017.86 1018.34 1018.49 1018.68
1015.70 1015.74 1015.80 1015.83 1016.03 1016.21 1016.42 1016.78 1017.23 1017.57 1017.82 1018.15 1018.33 1018.27 1018.43 1018.46 1018.09 1017.32 1017.10 1016.82 1016.77 1016.88 1017.16 1016.98 1016.76 1016.69 1016.47 1016.11 1015.56 1015.74 1015.54 1015.49 1015.28 1015.19 1015.18 1015.28 1015.40 1015.70 1016.11 1016.51 1016.31 1016.93 1017.52 1018.13 1018.47
1015.33 1015.56 1015.61 1015.80 1015.70 1015.95 1016.31 1016.64 1017.05 1017.38 1017.65 1018.11 1018.28 1018.43 1018.66 1018.47 1017.56 1017.08 1017.05 1016.77 1016.82 1017.04 1017.24 1017.14 1017.07 1016.87 1016.83 1016.47 1016.11 1016.06 1016.05 1016.02 1016.01 1015.79 1015.96 1015.76 1016.00 1016.20 1016.52 1016.53 1016.59 1017.09 1017.51 1017.90 1018.13
1015.12 1015.25 1015.24 1015.46 1015.43 1015.84 1016.03 1016.35 1016.83 1017.32 1017.69 1018.03 1018.31 1018.56 1018.81 1018.17 1017.01 1016.97 1016.95 1016.86 1016.77 1017.11 1017.18 1017.21 1017.13 1017.03 1016.93 1016.75 1016.84 1016.64 1016.62 1016.56 1016.46 1016.64 1016.55 1016.66 1016.81 1016.71 1016.49 1016.61 1016.82 1016.88 1017.32 1017.61 1017.77
1014.82 1014.78 1014.92 1015.07 1015.29 1015.57 1015.80 1016.17 1016.63 1017.21 1017.65 1018.01 1018.49 1018.66 1018.61 1017.65 1016.94 1016.94 1016.91 1016.97 1017.00 1017.06 1017.09 1017.09 1017.17 1017.18 1017.07 1017.06 1017.13 1017.02 1017.28 1017.26 1017.18 1017.23 1017.36 1017.36 1017.74 1017.35 1016.71 1016.82 1017.20 1017.22 1017.09 1017.44 1017.61
1014.54 1014.57 1014.80 1014.90 1015.24 1015.42 1015.63 1015.96 1016.48 1017.08 1017.55 1018.05 1018.39 1018.76 1018.31 1017.04 1016.95 1017.14 1016.94 1017.06 1016.89 1016.92 1017.06 1017.00 1017.18 1017.42 1017.58 1017.48 1017.79 1018.11 1018.29 1018.39 1017.91 1017.63 1017.75 1018.02 1018.06 1017.46 1017.25 1017.24 1017.39 1017.51 1017.37 1017.28 1017.46
1014.34 1014.54 1014.71 1014.68 1015.10 1015.34 1015.73 1016.00 1016.50 1017.01 1017.58 1018.04 1018.72 1018.81 1018.15 1016.97 1017.03 1017.06 1017.03 1017.15 1017.13 1017.16 1017.20 1017.21 1017.49 1017.94 1018.15 1018.51 1019.18 1019.25 1019.25 1019.06 1018.53 1017.74 1018.00 1018.28 1018.46 1017.75 1017.47 1017.50 1017.61 1017.52 1017.52 1017.40 1017.45
1014.05 1014.33 1014.37 1014.65 1015.14 1015.37 1015.77 1016.15 1016.78 1017.42 1017.88 1018.47 1018.59 1019.10 1017.77 1016.95 1016.90 1016.99 1017.09 1017.17 1017.46 1017.51 1017.87 1018.11 1018.31 1018.76 1019.00 1019.22 1019.57 1019.80 1019.84 1019.32 1018.90 1018.20 1018.27 1018.61 1018.64 1018.27 1017.88 1017.95 1017.99 1017.81 1017.73 1017.67 1017.53
1013.76 1014.09 1014.49 1014.69 1015.28 1015.27 1015.91 1016.70 1017.50 1017.71 1017.20 1017.29 1016.82 1017.19 1016.46 1016.80 1016.87 1017.04 1017.20 1017.40 1017.67 1017.92 1018.51 1018.68 1019.00 1018.76 1018.80 1018.82 1019.02 1019.37 1019.70 1019.70 1019.09 1018.45 1018.66 1018.89 1019.05 1018.74 1018.50 1018.36 1018.19 1017.98 1017.66 1017.55 1017.64
1013.53 1013.89 1014.07 1014.89 1015.01 1015.25 1015.78 1015.98 1015.62 1015.52 1016.61 1016.96 1016.73 1016.96 1016.64 1016.56 1017.13 1017.15 1017.22 1017.53 1017.86 1018.16 1018.66 1019.18 1018.81 1018.91 1019.06 1019.32 1019.46 1019.47 1019.74 1019.87 1019.43 1018.93 1019.24 1019.56 1019.45 1019.00 1018.71 1018.31 1017.85 1017.69 1017.57 1017.28 1017.56
1013.27 1013.77 1014.34 1014.87 1015.30 1015.70 1015.73 1015.91 1015.94 1015.81 1016.14 1016.66 1016.82 1016.62 1016.51 1016.70 1016.77 1016.92 1017.18 1017.38 1017.83 1018.34 1018.35 1018.61 1018.52 1018.70 1018.93 1019.11 1019.41 1019.53 1019.66 1019.88 1019.95 1019.76 1019.77 1019.91 1019.43 1018.84 1017.76 1017.21 1017.18 1016.92 1016.73 1016.80 1017.10
1013.02 1013.58 1014.30 1015.08 1015.64 1015.77 1015.97 1016.19 1016.77 1016.60 1016.60 1016.44 1015.88 1015.92 1016.35 1016.56 1016.79 1016.68 1017.02 1017.34 1017.84 1018.11 1018.53 1018.72 1018.42 1018.46 1018.54 1018.67 1018.97 1019.37 1019.47 1019.91 1020.29 1020.78 1021.02 1020.89 1019.96 1018.69 1017.69 1017.02 1016.52 1016.21 1016.08 1016.27 1016.80
1012.65 1013.39 1014.01 1014.72 1015.06 1015.73 1016.13 1016.23 1016.68 1016.74 1015.40 1015.21 1015.43 1015.82 1015.87 1016.49 1016.48 1017.03 1016.98 1017.35 1017.44 1017.47 1018.16 1018.10 1017.99 1018.20 1018.17 1018.18 1018.66 1019.09 1019.31 1020.07 1020.66 1021.41 1021.77 1021.59 1021.51 1018.24 1017.49 1016.88 1015.95 1015.30 1015.45 1015.76 1016.27
1012.35 1013.21 1013.96 1014.70 1015.17 1015.52 1015.72 1016.58 1017.26 1016.69 1014.73 1014.72 1014.49 1014.93 1015.97 1016.28 1016.49 1016.99 1017.39 1017.73 1017.42 1017.68 1017.96 1018.12 1017.81 1017.74 1017.53 1017.95 1018.39 1019.07 1019.90 1020.64 1021.35 1022.17 1021.99 1021.61 1021.48 1017.80 1017.07 1015.76 1015.06 1014.94 1015.21 1015.59 1016.46
1012.13 1013.06 1014.02 1014.71 1015.56 1015.77 1015.82 1017.52 1017.51 1015.63 1014.75 1014.88 1014.19 1014.57 1015.15 1015.48 1016.30 1016.30 1017.01 1017.72 1017.47 1018.07 1018.13 1018.24 1017.99 1017.70 1017.40 1017.95 1018.42 1019.05 1020.34 1021.71 1022.57 1022.75 1021.56 1020.63 1020.74 1016.71 1015.91 1014.86 1014.72 1014.70 1015.00 1015.58 1016.52
1012.07 1013.19 1014.16 1014.86 1015.09 1015.68 1016.20 1017.73 1017.30 1016.08 1014.77 1014.40 1014.36 1014.82 1014.92 1015.42 1015.95 1016.20 1016.80 1017.25 1017.12 1016.95 1017.48 1017.90 1018.24 1017.64 1017.58 1017.57 1017.91 1018.39 1019.52 1020.47 1021.50 1022.11 1021.49 1020.76 1019.14 1016.29 1014.79 1014.25 1014.01 1014.13 1014.74 1015.70 1016.77
1012.30 1013.89 1014.79 1015.01 1015.25 1016.05 1017.07 1017.22 1016.98 1016.34 1016.13 1015.05 1014.91 1015.00 1015.15 1015.07 1015.23 1015.95 1016.10 1016.00 1016.00 1015.96 1016.45 1017.06 1017.11 1016.74 1017.08 1017.23 1017.58 1018.50 1018.94 1019.68 1020.81 1022.07 1021.78 1020.22 1018.15 1016.05 1014.71 1014.21 1014.29 1014.41 1015.25 1016.07 1016.86
1012.49 1014.30 1015.51 1015.49 1015.66 1016.88 1017.76 1017.70 1017.43 1017.23 1017.02 1016.16 1015.18 1014.82 1014.92 1014.88 1015.21 1015.43 1015.78 1014.97 1015.24 1015.30 1015.43 1016.03 1016.98 1017.10 1017.16 1017.46 1017.58 1017.68 1018.52 1019.71 1020.69 1021.90 1021.73 1019.70 1018.14 1015.74 1014.62 1014.36 1014.52 1015.02 1015.23 1015.81 1016.59
1012.80 1015.01 1016.17 1015.74 1016.33 1017.78 1018.33 1018.51 1018.17 1018.10 1017.83 1017.66 1016.92 1016.01 1015.10 1014.91 1014.35 1014.63 1014.31 1014.10 1014.04 1014.63 1015.37 1015.85 1016.27 1017.90 1017.54 1017.31 1017.23 1017.99 1018.16 1018.73 1019.47 1020.41 1020.26 1019.35 1016.83 1014.29 1013.73 1013.96 1014.28 1014.54 1015.05 1015.68 1016.39
1013.51 1015.65 1016.35 1015.96 1017.40 1018.37 1019.12 1019.00 1018.60 1018.00 1018.27 1018.28 1017.82 1016.86 1016.76 1015.13 1014.61 1014.40 1013.49 1012.88 1012.95 1013.80 1014.47 1015.02 1015.88 1017.36 1017.24 1017.19 1017.19 1017.06 1016.97 1017.71 1018.55 1019.15 1019.06 1018.45 1015.64 1013.85 1013.44 1013.75 1013.88 1014.14 1014.65 1015.17 1015.77
1014.80 1016.31 1016.81 1016.83 1018.31 1019.56 1019.45 1019.00 1018.88 1018.31 1017.74 1017.86 1017.30 1016.86 1016.89 1016.63 1015.43 1013.91 1013.30 1012.63 1012.61 1013.31 1013.58 1014.41 1015.30 1016.92 1017.52 1017.85 1017.63 1017.27 1017.67 1017.61 1018.09 1018.53 1018.42 1018.04 1013.75 1013.23 1012.99 1013.46 1013.55 1014.03 1014.23 1014.82 1015.75
1014.66 1017.09 1017.98 1018.08 1018.70 1019.27 1020.18 1019.79 1019.09 1017.63 1017.62 1017.81 1017.32 1016.67 1016.89 1016.51 1016.17 1014.79 1013.59 1012.95 1012.87 1012.79 1013.28 1013.72 1014.51 1014.73 1014.73 1014.87 1016.40 1017.02 1016.81 1017.05 1017.38 1017.73 1016.99 1016.34 1013.31 1013.19 1013.44 1013.42 1013.72 1013.93 1014.12 1014.57 1015.33
1015.11 1017.58 1018.11 1018.88 1019.33 1019.65 1019.53 1019.34 1018.83 1018.46 1018.20 1017.81 1017.74 1017.23 1016.91 1016.54 1016.21 1015.87 1015.22 1013.92 1013.15 1012.86 1013.12 1013.45 1013.95 1014.56 1014.36 1014.97 1015.26 1015.37 1015.77 1016.55 1016.96 1015.81 1016.29 1014.10 1013.91 1012.36 1013.14 1013.49 1013.56 1013.68 1014.06 1014.87 1015.12
1016.22 1017.60 1018.36 1018.81 1019.21 1019.77 1019.94 1019.76 1019.00 1018.66 1018.03 1017.68 1017.57 1016.73 1016.66 1016.33 1015.61 1016.30 1016.80 1016.10 1014.67 1013.45 1013.08 1013.28 1013.64 1014.23 1014.46 1014.83 1015.19 1015.61 1015.63 1015.39 1015.00 1015.06 1015.47 1014.00 1013.38 1011.56 1012.16 1012.75 1013.20 1013.54 1013.92 1014.31 1014.59
1016.54 1017.03 1017.60 1019.31 1020.03 1020.39 1019.98 1019.13 1018.59 1018.12 1017.01 1016.37 1016.42 1016.90 1016.29 1015.74 1015.66 1015.74 1016.27 1016.60 1016.21 1016.11 1013.52 1012.86 1013.26 1014.09 1013.98 1014.58 1015.20 1015.26 1014.02 1014.26 1014.56 1013.89 1013.76 1013.70 1011.65 1011.15 1011.19 1011.95 1012.47 1012.99 1013.20 1013.16 1013.58
Wind_Speed
11 7 10 14 12 11 10 9 8 7 6 4 2 2 5 8 11 3 2 2 4 10 12 8 8 11 8 4 5 4 5 2 2 6 6 4 4 3 3 8 6 4 5 7 9
11 9 9 10 13 11 10 9 8 7 5 4 1 1 4 6 2 5 1 3 6 9 6 9 8 12 6 5 5 4 4 1 3 4 7 7 5 7 5 5 5 6 6 7 8
11 10 9 12 10 12 11 10 9 7 6 4 4 1 4 5 2 3 3 4 4 4 2 4 5 4 4 4 4 4 1 0 4 6 5 7 4 3 8 3 8 11 10 8 5
9 9 11 10 9 13 13 12 11 9 7 5 5 3 4 3 6 2 3 4 1 1 3 4 2 2 2 2 2 3 6 4 1 5 4 5 6 2 4 3 9 13 13 8 7
7 9 8 12 9 10 14 13 12 11 8 7 5 4 1 2 4 4 3 2 3 4 3 2 1 1 2 3 3 3 2 4 4 7 4 3 4 4 5 7 11 9 8 10 9
8 9 7 9 8 10 12 14 13 12 10 8 6 5 1 5 2 4 2 4 2 3 4 3 1 1 3 3 2 1 3 2 4 4 3 3 3 2 6 5 8 11 8 6 6
9 7 7 9 8 9 9 13 15 12 11 10 8 3 3 8 1 3 1 1 2 2 3 3 1 2 3 1 5 2 4 2 1 2 2 4 5 8 6 3 7 8 9 8 9
9 7 8 9 9 8 8 12 13 12 12 10 8 1 5 3 4 1 3 1 2 3 2 4 4 1 1 1 5 3 4 1 4 6 3 7 6 8 9 6 9 9 8 8 8
9 10 9 5 10 8 7 9 13 10 12 10 4 3 6 0 5 5 3 4 3 1 3 3 3 2 3 5 4 3 3 5 6 8 5 6 4 7 7 8 10 8 8 7 6
10 9 8 5 7 8 8 10 9 5 9 3 2 3 4 5 4 5 3 3 3 5 4 2 2 3 2 4 8 7 4 3 5 4 7 5 6 8 6 4 6 6 7 5 5
11 9 9 9 9 5 9 6 5 4 4 4 11 4 6 3 5 6 5 4 4 4 5 3 4 10 14 10 5 7 4 4 5 5 3 5 6 10 10 5 9 9 8 7 7
12 11 10 12 11 9 5 4 4 3 5 1 9 3 4 5 4 5 7 7 6 7 7 3 9 6 7 6 7 5 3 4 5 2 3 4 9 11 7 8 11 11 10 10 5
15 13 12 12 12 6 3 8 10 12 3 4 5 4 4 4 4 11 11 3 4 10 9 7 4 12 8 7 10 6 6 4 5 2 2 4 8 9 9 16 10 11 10 9 11
16 14 18 14 5 2 4 1 7 4 3 8 7 6 4 5 3 10 8 5 5 12 8 7 7 15 6 11 7 10 6 4 3 4 3 4 8 6 7 9 11 18 13 11 9
16 16 19 13 8 4 4 8 4 2 9 13 10 6 9 7 11 7 3 2 6 7 7 7 9 12 13 5 7 3 6 7 4 2 2 2 4 7 3 5 9 13 10 9 9
17 17 20 4 3 4 10 7 5 7 9 7 10 16 14 7 5 5 4 1 2 1 2 6 1 4 8 6 8 8 5 4 3 3 8 9 8 5 6 10 5 4 7 8 9
20 19 14 5 4 7 10 4 1 6 5 7 8 15 19 11 7 7 13 9 8 7 7 3 4 4 4 6 4 7 8 1 1 4 8 4 10 12 6 8 5 9 7 8 12
21 17 7 4 7 7 5 2 6 4 3 4 8 17 15 12 7 6 16 14 10 3 7 8 4 9 5 8 8 13 12 6 8 6 4 4 10 8 8 9 8 7 9 10 9
21 3 4 1 7 4 4 3 3 2 6 3 10 12 9 11 8 8 14 17 16 16 7 8 5 5 7 5 12 6 10 6 2 3 3 5 7 8 8 5 4 7 9 10 11
5 5 3 5 7 5 3 2 1 3 3 6 3 7 14 17 8 17 15 14 7 16 4 5 3 1 7 4 4 7 8 4 3 3 4 5 6 8 2 8 6 7 13 12 10
7 5 1 7 6 4 1 2 2 4 1 1 5 3 10 11 18 15 12 8 25 17 15 4 5 2 6 8 15 7 5 5 5 6 6 2 8 9 18 6 8 10 9 10 12
5 6 3 2 4 2 4 3 5 3 2 3 5 3 4 10 16 14 18 15 16 17 23 12 4 6 10 3 4 18 12 12 6 5 5 2 9 3 9 5 7 8 9 12 14
5 5 3 3 4 1 2 2 2 3 2 3 2 4 4 3 7 20 7 9 10 21 15 13 6 3 1 4 3 6 13 12 10 3 6 4 12 6 10 6 6 5 8 10 9
5 4 2 2 1 7 5 4 3 2 2 3 2 3 3 1 4 7 17 6 9 17 11 17 4 17 18 10 9 9 14 19 16 8 11 16 26 17 10 8 6 5 6 8 12
4 2 2 4 2 2 2 4 4 2 3 4 2 6 5 4 6 9 8 11 7 7 14 14 12 11 15 3 8 10 15 17 20 25 12 22 22 23 16 8 10 11 6 4 10
5 5 3 1 3 4 1 4 4 4 5 5 7 1 5 5 9 7 3 4 7 9 12 9 6 8 14 10 9 4 10 19 23 23 18 23 22 19 10 4 4 7 6 8 11
1 1 5 1 3 5 5 6 5 6 7 8 8 1 8 14 8 9 13 10 8 8 14 13 9 6 14 7 6 7 22 16 13 21 18 21 27 22 20 14 13 10 10 15 9
Wind_Direction
287 281 265 230 219 213 207 202 198 200 199 198 186 357 337 331 315 272 275 304 325 340 329 304 358 348 347 335 348 21 58 316 5 136 167 152 109 21 68 90 49 24 103 138 145
283 263 270 248 223 211 206 199 198 200 198 204 184 296 312 338 293 262 314 332 324 351 13 0 345 339 348 324 347 64 99 4 325 136 146 133 130 147 98 97 60 70 71 117 133
277 268 247 258 231 213 205 196 192 191 193 202 210 242 314 319 339 234 332 350 358 353 307 309 299 314 325 341 332 334 94 233 4 41 124 124 104 120 126 166 176 164 158 158 165
270 264 255 249 238 218 204 196 189 185 183 191 207 225 339 299 208 145 263 313 353 332 317 321 306 307 282 329 304 44 343 26 181 39 61 111 137 123 110 196 166 156 159 159 168
258 252 246 235 221 234 208 194 187 180 176 183 188 200 236 224 252 179 250 18 140 142 198 231 242 211 261 310 1 125 328 46 59 51 48 50 109 162 141 144 118 126 143 166 183
244 243 245 234 227 225 217 196 185 178 173 176 179 150 278 215 178 138 48 333 119 174 185 218 129 256 251 298 92 92 29 243 71 42 27 54 321 55 241 167 149 146 164 186 188
255 239 236 232 224 215 218 203 186 175 170 174 174 166 277 233 113 90 310 43 351 337 189 233 8 70 13 354 311 53 52 56 121 125 297 120 302 236 239 156 198 191 183 192 202
239 246 229 220 224 217 218 210 175 173 168 170 160 172 244 258 140 220 182 269 315 6 21 146 66 91 68 228 29 52 60 119 254 169 236 118 255 252 252 235 223 208 210 199 194
227 226 221 226 214 207 200 187 158 183 170 162 126 184 248 158 171 205 195 182 146 13 47 66 55 147 54 105 42 355 198 197 278 208 161 168 230 258 303 220 226 224 223 205 216
211 230 199 197 195 198 177 125 120 109 171 71 344 92 229 211 175 180 230 215 157 134 64 96 105 116 113 111 193 190 211 260 213 281 182 197 236 269 287 300 250 221 236 237 222
202 216 188 175 156 160 152 119 142 199 237 230 162 243 134 106 106 179 184 133 142 113 152 216 147 191 192 192 155 147 163 230 269 255 178 232 243 257 267 268 253 248 248 253 230
201 197 177 176 146 109 125 197 171 167 166 223 161 256 121 144 125 172 153 152 170 175 147 144 226 203 177 189 211 234 193 235 296 114 123 282 273 269 256 247 220 224 227 226 231
199 194 168 153 128 130 130 201 19 352 150 155 176 173 167 148 177 183 161 165 164 170 182 164 236 183 198 187 203 212 192 202 205 352 345 336 282 250 246 234 225 222 216 213 205
198 188 157 144 107 114 189 79 355 303 214 183 183 198 163 155 214 169 177 163 182 186 173 227 247 186 190 214 175 217 182 208 250 50 240 100 288 277 266 252 232 230 221 210 200
195 182 156 164 129 147 116 93 343 85 210 164 156 176 164 179 138 203 158 25 181 165 168 210 197 185 199 179 173 194 158 197 196 261 334 258 303 266 256 276 255 229 221 209 197
183 179 161 189 63 130 118 96 16 194 211 167 151 168 155 192 169 110 156 273 208 178 95 207 225 159 171 169 157 149 93 69 78 109 253 216 201 225 215 225 242 244 223 204 145
176 172 158 119 166 130 114 69 293 261 147 159 165 174 173 170 136 148 170 183 169 148 206 164 205 184 138 145 127 132 121 138 235 212 229 235 210 255 267 264 206 216 216 159 147
167 158 155 145 131 131 80 101 227 231 198 177 156 165 187 141 182 158 158 190 232 213 145 171 189 165 186 181 181 183 169 163 200 206 233 190 227 261 227 247 227 189 157 139 137
136 75 97 190 131 100 89 205 213 328 327 181 139 168 187 187 156 154 191 193 196 196 158 171 237 126 175 165 155 180 199 165 79 33 58 232 291 303 248 265 125 138 133 154 158
104 90 95 91 99 83 83 350 19 37 7 334 147 170 180 188 176 186 176 198 210 203 220 187 136 23 183 117 242 166 154 195 150 184 250 253 252 234 211 235 203 175 181 178 164
94 81 76 123 75 72 147 157 76 89 124 282 6 250 214 184 196 191 199 205 197 191 207 206 134 235 140 198 188 175 182 204 169 171 188 238 254 216 219 189 233 226 199 182 174
84 91 164 342 78 99 145 137 262 165 152 154 205 127 329 219 200 194 210 197 195 183 198 192 150 169 197 170 268 220 201 176 188 218 222 232 257 187 141 157 175 238 195 194 187
82 88 346 56 134 359 352 344 226 207 187 187 219 117 99 340 279 206 200 216 172 190 183 179 199 145 164 287 350 193 226 217 229 60 215 177 254 237 256 323 302 232 213 190 172
97 101 72 43 110 131 139 236 266 214 219 198 228 136 82 267 296 351 245 213 203 198 189 170 164 209 219 229 143 200 192 214 210 217 223 225 255 249 250 276 318 295 232 187 182
44 100 181 164 222 106 124 180 163 217 225 185 290 225 199 189 352 318 342 268 215 218 193 176 218 205 240 130 178 198 196 198 212 227 209 245 241 253 252 249 247 246 252 177 203
108 119 353 116 106 91 320 270 210 292 176 195 220 155 189 224 187 245 336 353 254 227 196 182 229 187 234 215 203 168 200 207 213 229 236 253 266 261 252 195 256 262 246 219 220
353 49 101 236 99 94 225 224 229 193 264 230 224 154 237 227 250 234 196 217 236 269 238 181 198 158 238 168 136 218 217 211 216 226 220 234 244 262 265 255 248 241 233 247 238